QPF
0.00 0.00 0.00 0.00 0.00 0.00 0.00 0.00 0.00 0.00 0.00 0.00 0.00 0.00 0.00 0.00 0.00 0.00 0.00 0.00 0.00 0.00 0.00 0.00 0.00 0.00 0.00 0.00 0.00 0.00 0.00 0.00 0.00 0.00 0.00 0.00 0.00 0.00 0.00 0.00 0.00 0.00 0.00
0.00 0.00 0.00 0.00 0.00 0.00 0.00 0.00 0.00 0.00 0.00 0.00 0.00 0.00 0.00 0.00 0.00 0.00 0.00 0.00 0.00 0.00 0.00 0.00 0.00 0.00 0.00 0.00 0.00 0.00 0.00 0.00 0.00 0.00 0.01 0.01 0.00 0.00 0.00 0.00 0.00 0.00 0.00
0.00 0.00 0.00 0.00 0.00 0.00 0.00 0.00 0.00 0.00 0.00 0.00 0.00 0.00 0.00 0.00 0.00 0.00 0.00 0.00 0.00 0.00 0.00 0.00 0.00 0.00 0.00 0.00 0.00 0.00 0.00 0.00 0.00 0.00 0.03 0.07 0.04 0.01 0.00 0.00 0.00 0.00 0.00
0.00 0.00 0.00 0.00 0.00 0.00 0.00 0.00 0.00 0.00 0.00 0.00 0.00 0.00 0.00 0.00 0.00 0.00 0.00 0.00 0.00 0.00 0.00 0.00 0.00 0.00 0.00 0.00 0.00 0.00 0.00 0.00 0.00 0.00 0.01 0.03 0.05 0.06 0.03 0.00 0.00 0.00 0.00
0.00 0.00 0.00 0.00 0.00 0.00 0.00 0.00 0.00 0.00 0.00 0.00 0.00 0.00 0.00 0.00 0.00 0.00 0.00 0.00 0.00 0.00 0.00 0.00 0.00 0.00 0.00 0.00 0.00 0.00 0.00 0.00 0.01 0.01 0.01 0.01 0.01 0.02 0.05 0.02 0.00 0.00 0.00
0.00 0.00 0.00 0.00 0.00 0.00 0.00 0.00 0.00 0.00 0.00 0.00 0.00 0.00 0.00 0.00 0.00 0.00 0.00 0.00 0.00 0.00 0.00 0.00 0.00 0.00 0.00 0.00 0.00 0.00 0.00 0.00 0.00 0.00 0.00 0.01 0.01 0.01 0.03 0.03 0.01 0.00 0.00
0.00 0.00 0.00 0.00 0.00 0.00 0.00 0.00 0.00 0.00 0.00 0.00 0.00 0.00 0.00 0.00 0.00 0.00 0.00 0.00 0.00 0.00 0.00 0.00 0.00 0.00 0.00 0.00 0.00 0.00 0.00 0.00 0.00 0.00 0.00 0.00 0.00 0.01 0.02 0.04 0.02 0.01 0.00
0.00 0.00 0.00 0.00 0.00 0.00 0.00 0.00 0.00 0.00 0.00 0.00 0.00 0.00 0.00 0.00 0.00 0.00 0.00 0.00 0.00 0.00 0.00 0.00 0.00 0.00 0.00 0.00 0.00 0.00 0.00 0.00 0.00 0.00 0.00 0.00 0.00 0.00 0.01 0.02 0.04 0.04 0.01
0.00 0.00 0.00 0.00 0.00 0.00 0.00 0.00 0.00 0.00 0.00 0.00 0.00 0.00 0.00 0.00 0.00 0.00 0.00 0.00 0.00 0.00 0.00 0.00 0.00 0.00 0.00 0.00 0.00 0.00 0.00 0.00 0.00 0.00 0.00 0.00 0.00 0.00 0.00 0.00 0.02 0.07 0.06
0.00 0.00 0.00 0.00 0.00 0.00 0.00 0.00 0.00 0.00 0.00 0.00 0.00 0.00 0.00 0.00 0.00 0.00 0.00 0.00 0.00 0.00 0.00 0.00 0.00 0.00 0.00 0.00 0.00 0.00 0.00 0.00 0.00 0.00 0.00 0.00 0.00 0.00 0.00 0.00 0.01 0.02 0.05
0.00 0.00 0.00 0.00 0.00 0.00 0.00 0.00 0.00 0.00 0.00 0.00 0.00 0.00 0.00 0.00 0.00 0.00 0.00 0.00 0.00 0.00 0.00 0.00 0.00 0.00 0.00 0.00 0.00 0.00 0.00 0.00 0.00 0.00 0.00 0.00 0.00 0.00 0.01 0.00 0.00 0.01 0.02
0.00 0.00 0.00 0.00 0.00 0.00 0.00 0.00 0.00 0.00 0.00 0.00 0.00 0.00 0.00 0.00 0.00 0.00 0.00 0.00 0.00 0.00 0.00 0.00 0.00 0.00 0.00 0.00 0.00 0.00 0.00 0.00 0.00 0.01 0.01 0.01 0.01 0.01 0.01 0.01 0.00 0.00 0.01
0.00 0.00 0.00 0.00 0.00 0.00 0.00 0.00 0.00 0.00 0.00 0.00 0.00 0.00 0.00 0.00 0.00 0.00 0.00 0.00 0.00 0.00 0.00 0.00 0.00 0.00 0.00 0.00 0.00 0.00 0.00 0.01 0.02 0.02 0.02 0.02 0.02 0.02 0.01 0.00 0.00 0.01 0.02
0.00 0.00 0.00 0.00 0.00 0.00 0.00 0.00 0.00 0.00 0.00 0.00 0.00 0.00 0.00 0.00 0.00 0.00 0.00 0.00 0.00 0.00 0.00 0.00 0.00 0.00 0.00 0.00 0.00 0.00 0.02 0.05 0.05 0.04 0.03 0.03 0.02 0.01 0.01 0.01 0.02 0.04 0.06
0.00 0.00 0.00 0.00 0.00 0.00 0.00 0.00 0.00 0.00 0.00 0.00 0.00 0.00 0.00 0.00 0.00 0.00 0.00 0.00 0.00 0.00 0.00 0.00 0.00 0.00 0.00 0.00 0.00 0.04 0.11 0.13 0.08 0.03 0.02 0.01 0.01 0.02 0.03 0.05 0.06 0.09 0.10
0.00 0.00 0.00 0.00 0.00 0.00 0.00 0.00 0.00 0.00 0.00 0.00 0.00 0.00 0.00 0.00 0.00 0.00 0.00 0.00 0.00 0.00 0.00 0.00 0.00 0.00 0.00 0.00 0.01 0.06 0.12 0.10 0.04 0.02 0.01 0.01 0.01 0.01 0.01 0.02 0.05 0.08 0.08
0.00 0.00 0.00 0.00 0.00 0.00 0.00 0.00 0.00 0.00 0.00 0.00 0.00 0.00 0.00 0.00 0.00 0.00 0.00 0.00 0.00 0.00 0.00 0.00 0.00 0.00 0.00 0.00 0.01 0.06 0.09 0.05 0.01 0.00 0.00 0.00 0.00 0.00 0.01 0.03 0.05 0.03 0.02
0.00 0.00 0.00 0.00 0.00 0.00 0.00 0.00 0.00 0.00 0.00 0.00 0.00 0.00 0.00 0.00 0.00 0.00 0.00 0.00 0.00 0.00 0.00 0.00 0.00 0.00 0.00 0.00 0.01 0.06 0.06 0.02 0.00 0.00 0.00 0.00 0.00 0.00 0.04 0.12 0.05 0.01 0.01
0.00 0.00 0.00 0.00 0.00 0.00 0.00 0.00 0.00 0.00 0.00 0.00 0.00 0.00 0.00 0.00 0.00 0.00 0.00 0.00 0.00 0.00 0.00 0.00 0.00 0.00 0.00 0.00 0.01 0.05 0.05 0.01 0.00 0.00 0.00 0.00 0.00 0.02 0.07 0.06 0.01 0.01 0.02
0.00 0.00 0.00 0.00 0.00 0.00 0.00 0.00 0.00 0.00 0.00 0.00 0.00 0.00 0.00 0.00 0.00 0.00 0.00 0.00 0.00 0.00 0.00 0.00 0.00 0.00 0.00 0.00 0.01 0.05 0.05 0.03 0.01 0.00 0.00 0.00 0.01 0.05 0.04 0.02 0.01 0.03 0.05
0.00 0.00 0.00 0.00 0.00 0.00 0.00 0.00 0.00 0.00 0.00 0.00 0.00 0.00 0.00 0.00 0.00 0.00 0.00 0.00 0.00 0.00 0.00 0.00 0.00 0.00 0.00 0.00 0.01 0.03 0.04 0.05 0.02 0.00 0.00 0.01 0.03 0.04 0.02 0.01 0.02 0.06 0.05
0.00 0.00 0.00 0.00 0.00 0.00 0.00 0.00 0.00 0.00 0.00 0.00 0.00 0.00 0.00 0.00 0.00 0.00 0.01 0.00 0.00 0.00 0.00 0.00 0.00 0.00 0.00 0.00 0.00 0.02 0.03 0.03 0.01 0.01 0.01 0.02 0.03 0.02 0.01 0.01 0.02 0.02 0.02
0.00 0.00 0.00 0.00 0.00 0.00 0.00 0.00 0.00 0.00 0.00 0.00 0.00 0.00 0.00 0.00 0.01 0.01 0.01 0.01 0.00 0.00 0.00 0.00 0.00 0.00 0.00 0.00 0.00 0.01 0.01 0.01 0.01 0.01 0.01 0.01 0.01 0.01 0.00 0.01 0.01 0.00 0.01
0.00 0.00 0.00 0.00 0.00 0.00 0.00 0.00 0.00 0.00 0.00 0.00 0.00 0.00 0.00 0.01 0.01 0.02 0.02 0.01 0.01 0.00 0.00 0.00 0.00 0.00 0.00 0.00 0.00 0.01 0.01 0.01 0.01 0.01 0.00 0.00 0.00 0.00 0.00 0.00 0.00 0.00 0.01
0.00 0.00 0.00 0.00 0.00 0.00 0.00 0.00 0.00 0.00 0.00 0.00 0.00 0.00 0.01 0.01 0.02 0.02 0.02 0.02 0.01 0.00 0.00 0.00 0.00 0.00 0.00 0.00 0.01 0.01 0.01 0.01 0.01 0.01 0.00 0.00 0.00 0.00 0.00 0.00 0.00 0.00 0.00
0.00 0.00 0.00 0.00 0.00 0.00 0.00 0.00 0.00 0.00 0.00 0.00 0.00 0.01 0.01 0.02 0.02 0.02 0.02 0.02 0.01 0.00 0.00 0.00 0.00 0.00 0.00 0.00 0.00 0.01 0.01 0.01 0.01 0.00 0.00 0.00 0.00 0.01 0.01 0.01 0.01 0.00 0.00
MSLP
1022.76 1023.16 1023.61 1024.11 1024.63 1025.16 1025.71 1026.27 1026.83 1027.40 1027.95 1028.47 1028.95 1029.37 1029.71 1029.97 1030.15 1030.25 1030.29 1030.29 1030.27 1030.24 1030.21 1030.17 1030.12 1030.05 1029.94 1029.79 1029.58 1029.32 1028.99 1028.59 1028.14 1027.63 1027.06 1026.45 1025.80 1025.12 1024.42 1023.72 1023.02 1022.34 1021.68
1021.59 1022.04 1022.55 1023.10 1023.67 1024.24 1024.82 1025.41 1026.02 1026.65 1027.29 1027.91 1028.49 1029.00 1029.41 1029.71 1029.89 1029.97 1029.98 1029.94 1029.88 1029.83 1029.79 1029.77 1029.75 1029.72 1029.65 1029.53 1029.34 1029.08 1028.75 1028.35 1027.90 1027.38 1026.82 1026.21 1025.55 1024.84 1024.10 1023.34 1022.58 1021.83 1021.09
1020.27 1020.80 1021.40 1022.02 1022.66 1023.28 1023.90 1024.54 1025.20 1025.90 1026.61 1027.32 1027.99 1028.58 1029.05 1029.38 1029.57 1029.64 1029.61 1029.54 1029.45 1029.38 1029.34 1029.33 1029.34 1029.34 1029.30 1029.21 1029.03 1028.78 1028.45 1028.06 1027.62 1027.12 1026.58 1025.99 1025.35 1024.65 1023.89 1023.09 1022.27 1021.44 1020.63
1018.89 1019.51 1020.21 1020.93 1021.64 1022.33 1023.00 1023.68 1024.39 1025.14 1025.91 1026.69 1027.43 1028.07 1028.59 1028.96 1029.16 1029.21 1029.17 1029.07 1028.96 1028.88 1028.84 1028.84 1028.87 1028.89 1028.87 1028.78 1028.62 1028.37 1028.06 1027.68 1027.26 1026.80 1026.30 1025.77 1025.17 1024.50 1023.75 1022.93 1022.06 1021.17 1020.28
1017.55 1018.26 1019.07 1019.89 1020.68 1021.42 1022.14 1022.85 1023.58 1024.35 1025.17 1025.98 1026.77 1027.46 1028.02 1028.41 1028.62 1028.69 1028.64 1028.53 1028.42 1028.33 1028.29 1028.30 1028.33 1028.36 1028.35 1028.26 1028.09 1027.85 1027.54 1027.18 1026.79 1026.38 1025.94 1025.47 1024.93 1024.32 1023.60 1022.79 1021.90 1020.95 1019.98
1016.34 1017.15 1018.05 1018.95 1019.81 1020.60 1021.34 1022.05 1022.79 1023.56 1024.38 1025.21 1026.02 1026.74 1027.33 1027.74 1027.99 1028.07 1028.04 1027.94 1027.84 1027.76 1027.72 1027.73 1027.77 1027.79 1027.76 1027.66 1027.48 1027.22 1026.91 1026.56 1026.19 1025.83 1025.45 1025.05 1024.58 1024.03 1023.36 1022.57 1021.68 1020.70 1019.69
1015.33 1016.22 1017.19 1018.16 1019.06 1019.87 1020.61 1021.31 1022.02 1022.76 1023.56 1024.38 1025.18 1025.92 1026.53 1026.98 1027.26 1027.39 1027.39 1027.33 1027.25 1027.18 1027.16 1027.17 1027.19 1027.19 1027.14 1027.01 1026.80 1026.51 1026.18 1025.83 1025.47 1025.14 1024.81 1024.46 1024.06 1023.57 1022.95 1022.20 1021.32 1020.34 1019.31
1014.54 1015.48 1016.51 1017.51 1018.42 1019.23 1019.94 1020.60 1021.26 1021.96 1022.71 1023.51 1024.30 1025.04 1025.67 1026.16 1026.49 1026.67 1026.72 1026.71 1026.67 1026.63 1026.62 1026.63 1026.63 1026.60 1026.51 1026.34 1026.08 1025.75 1025.38 1025.00 1024.64 1024.30 1023.99 1023.68 1023.33 1022.89 1022.32 1021.62 1020.78 1019.82 1018.79
1013.95 1014.92 1015.96 1016.96 1017.86 1018.63 1019.30 1019.91 1020.52 1021.16 1021.87 1022.62 1023.39 1024.13 1024.79 1025.31 1025.69 1025.93 1026.05 1026.09 1026.10 1026.10 1026.10 1026.10 1026.09 1026.02 1025.88 1025.65 1025.33 1024.94 1024.52 1024.10 1023.70 1023.35 1023.03 1022.72 1022.39 1021.99 1021.46 1020.81 1020.01 1019.10 1018.11
1013.50 1014.46 1015.48 1016.45 1017.31 1018.03 1018.65 1019.21 1019.76 1020.36 1021.02 1021.74 1022.49 1023.23 1023.90 1024.46 1024.89 1025.19 1025.38 1025.48 1025.53 1025.56 1025.57 1025.57 1025.53 1025.42 1025.23 1024.94 1024.55 1024.10 1023.62 1023.13 1022.69 1022.29 1021.95 1021.62 1021.29 1020.90 1020.41 1019.79 1019.05 1018.20 1017.27
1013.11 1014.02 1014.98 1015.89 1016.69 1017.36 1017.94 1018.45 1018.97 1019.53 1020.17 1020.87 1021.61 1022.35 1023.04 1023.63 1024.10 1024.45 1024.69 1024.84 1024.93 1024.99 1025.01 1025.00 1024.92 1024.77 1024.53 1024.18 1023.73 1023.22 1022.67 1022.13 1021.63 1021.18 1020.79 1020.44 1020.08 1019.69 1019.22 1018.64 1017.95 1017.17 1016.32
1012.70 1013.53 1014.40 1015.22 1015.95 1016.58 1017.11 1017.61 1018.12 1018.68 1019.32 1020.02 1020.76 1021.50 1022.20 1022.82 1023.32 1023.70 1023.98 1024.17 1024.29 1024.36 1024.38 1024.35 1024.24 1024.05 1023.75 1023.35 1022.86 1022.29 1021.70 1021.11 1020.56 1020.06 1019.63 1019.24 1018.86 1018.45 1017.98 1017.43 1016.79 1016.07 1015.30
1012.21 1012.93 1013.69 1014.41 1015.07 1015.65 1016.17 1016.67 1017.20 1017.79 1018.45 1019.17 1019.93 1020.69 1021.40 1022.02 1022.54 1022.95 1023.25 1023.46 1023.60 1023.67 1023.68 1023.62 1023.49 1023.25 1022.92 1022.47 1021.94 1021.34 1020.71 1020.09 1019.51 1018.98 1018.51 1018.09 1017.68 1017.26 1016.79 1016.25 1015.65 1014.98 1014.27
1011.63 1012.22 1012.85 1013.47 1014.05 1014.59 1015.11 1015.64 1016.22 1016.85 1017.56 1018.32 1019.11 1019.88 1020.61 1021.25 1021.78 1022.20 1022.51 1022.73 1022.87 1022.93 1022.93 1022.85 1022.68 1022.41 1022.03 1021.56 1021.00 1020.38 1019.73 1019.10 1018.50 1017.96 1017.47 1017.03 1016.60 1016.16 1015.69 1015.15 1014.57 1013.93 1013.27
1010.98 1011.42 1011.92 1012.42 1012.93 1013.44 1013.97 1014.54 1015.18 1015.88 1016.65 1017.46 1018.29 1019.08 1019.82 1020.47 1021.01 1021.44 1021.77 1021.99 1022.13 1022.19 1022.17 1022.06 1021.86 1021.56 1021.15 1020.65 1020.07 1019.45 1018.80 1018.17 1017.58 1017.04 1016.54 1016.09 1015.65 1015.19 1014.70 1014.17 1013.58 1012.96 1012.33
1010.31 1010.60 1010.95 1011.34 1011.78 1012.26 1012.81 1013.42 1014.12 1014.89 1015.72 1016.58 1017.44 1018.27 1019.02 1019.69 1020.24 1020.69 1021.03 1021.27 1021.41 1021.47 1021.44 1021.31 1021.08 1020.75 1020.31 1019.79 1019.20 1018.57 1017.93 1017.31 1016.73 1016.21 1015.72 1015.27 1014.82 1014.35 1013.85 1013.30 1012.70 1012.07 1011.44
1009.65 1009.80 1010.01 1010.30 1010.67 1011.12 1011.67 1012.32 1013.06 1013.89 1014.77 1015.67 1016.56 1017.41 1018.19 1018.87 1019.45 1019.92 1020.29 1020.55 1020.72 1020.79 1020.76 1020.62 1020.37 1020.01 1019.55 1019.01 1018.41 1017.78 1017.15 1016.55 1015.99 1015.48 1015.01 1014.56 1014.11 1013.63 1013.11 1012.53 1011.91 1011.26 1010.61
1009.06 1009.07 1009.17 1009.35 1009.65 1010.07 1010.61 1011.27 1012.04 1012.89 1013.79 1014.71 1015.62 1016.49 1017.28 1017.99 1018.60 1019.11 1019.51 1019.82 1020.03 1020.13 1020.11 1019.98 1019.72 1019.35 1018.88 1018.32 1017.71 1017.08 1016.46 1015.87 1015.33 1014.84 1014.38 1013.94 1013.49 1013.00 1012.46 1011.86 1011.21 1010.52 1009.84
1008.52 1008.43 1008.42 1008.53 1008.76 1009.13 1009.64 1010.28 1011.04 1011.89 1012.79 1013.70 1014.61 1015.48 1016.28 1017.01 1017.66 1018.21 1018.68 1019.04 1019.30 1019.45 1019.47 1019.35 1019.11 1018.74 1018.26 1017.70 1017.09 1016.46 1015.85 1015.28 1014.75 1014.28 1013.84 1013.40 1012.95 1012.45 1011.90 1011.27 1010.59 1009.87 1009.16
1008.05 1007.87 1007.78 1007.81 1007.97 1008.29 1008.75 1009.35 1010.08 1010.88 1011.75 1012.63 1013.52 1014.37 1015.18 1015.93 1016.61 1017.22 1017.74 1018.17 1018.49 1018.70 1018.77 1018.69 1018.47 1018.12 1017.66 1017.11 1016.51 1015.90 1015.31 1014.75 1014.25 1013.79 1013.36 1012.94 1012.49 1011.99 1011.41 1010.77 1010.07 1009.32 1008.58
1007.58 1007.35 1007.20 1007.16 1007.26 1007.52 1007.92 1008.46 1009.12 1009.86 1010.67 1011.51 1012.35 1013.18 1013.98 1014.74 1015.46 1016.11 1016.69 1017.18 1017.57 1017.84 1017.96 1017.94 1017.77 1017.46 1017.03 1016.52 1015.96 1015.38 1014.82 1014.30 1013.82 1013.38 1012.97 1012.56 1012.11 1011.61 1011.03 1010.38 1009.66 1008.90 1008.13
1007.11 1006.83 1006.63 1006.54 1006.59 1006.77 1007.10 1007.57 1008.15 1008.82 1009.56 1010.34 1011.13 1011.93 1012.72 1013.49 1014.22 1014.91 1015.53 1016.08 1016.53 1016.85 1017.04 1017.08 1016.97 1016.73 1016.36 1015.92 1015.42 1014.90 1014.39 1013.91 1013.47 1013.06 1012.67 1012.27 1011.83 1011.33 1010.76 1010.11 1009.39 1008.62 1007.84
1006.61 1006.29 1006.05 1005.91 1005.89 1006.01 1006.27 1006.66 1007.16 1007.76 1008.43 1009.15 1009.91 1010.68 1011.45 1012.22 1012.96 1013.67 1014.33 1014.91 1015.41 1015.78 1016.03 1016.13 1016.10 1015.93 1015.66 1015.30 1014.89 1014.46 1014.02 1013.61 1013.22 1012.84 1012.47 1012.08 1011.65 1011.16 1010.60 1009.96 1009.25 1008.50 1007.72
1006.08 1005.72 1005.43 1005.23 1005.16 1005.21 1005.40 1005.71 1006.15 1006.69 1007.31 1007.99 1008.71 1009.47 1010.23 1011.00 1011.75 1012.47 1013.14 1013.75 1014.26 1014.68 1014.98 1015.15 1015.19 1015.12 1014.95 1014.71 1014.41 1014.08 1013.73 1013.40 1013.06 1012.72 1012.38 1012.00 1011.58 1011.10 1010.55 1009.93 1009.25 1008.52 1007.76
1005.55 1005.14 1004.78 1004.52 1004.38 1004.36 1004.48 1004.74 1005.12 1005.62 1006.21 1006.88 1007.59 1008.35 1009.12 1009.89 1010.65 1011.37 1012.04 1012.65 1013.18 1013.62 1013.95 1014.18 1014.31 1014.34 1014.29 1014.17 1013.99 1013.78 1013.53 1013.27 1013.00 1012.70 1012.37 1012.01 1011.59 1011.12 1010.59 1010.00 1009.35 1008.66 1007.93
1005.06 1004.57 1004.14 1003.80 1003.58 1003.49 1003.55 1003.76 1004.10 1004.58 1005.17 1005.84 1006.58 1007.35 1008.14 1008.92 1009.68 1010.40 1011.07 1011.67 1012.20 1012.65 1013.02 1013.30 1013.51 1013.64 1013.70 1013.70 1013.66 1013.56 1013.42 1013.23 1013.01 1012.75 1012.43 1012.07 1011.66 1011.20 1010.68 1010.11 1009.51 1008.86 1008.18
Thickness
5663 5654 5646 5637 5626 5616 5606 5597 5587 5577 5567 5555 5543 5532 5523 5513 5503 5493 5482 5471 5459 5447 5435 5421 5407 5390 5372 5351 5330 5309 5290 5272 5254 5239 5231 5223 5211 5199 5190 5183 5179 5178 5179
5661 5656 5648 5638 5628 5618 5608 5598 5588 5577 5566 5555 5543 5532 5520 5508 5497 5486 5474 5463 5450 5437 5424 5409 5393 5375 5355 5334 5312 5292 5273 5258 5238 5219 5209 5206 5202 5192 5182 5173 5168 5166 5165
5670 5662 5652 5642 5631 5621 5611 5602 5588 5576 5564 5552 5539 5526 5513 5501 5489 5478 5466 5454 5441 5427 5412 5397 5380 5361 5340 5318 5298 5278 5259 5245 5229 5206 5188 5179 5179 5177 5176 5167 5161 5155 5154
5675 5668 5659 5647 5637 5628 5614 5602 5588 5575 5562 5549 5536 5522 5509 5495 5484 5471 5458 5445 5431 5417 5401 5385 5367 5348 5327 5306 5286 5268 5249 5232 5219 5203 5185 5168 5157 5151 5157 5162 5155 5149 5146
5678 5672 5665 5656 5643 5628 5613 5600 5586 5572 5559 5547 5534 5520 5506 5492 5478 5464 5450 5436 5422 5407 5392 5375 5356 5337 5316 5296 5277 5259 5241 5223 5208 5195 5182 5169 5155 5142 5133 5142 5149 5148 5144
5681 5674 5665 5653 5639 5623 5609 5596 5583 5570 5557 5544 5531 5518 5503 5487 5472 5457 5443 5429 5414 5399 5383 5365 5347 5328 5308 5289 5271 5253 5236 5220 5204 5190 5176 5164 5153 5144 5134 5131 5135 5139 5143
5682 5672 5660 5649 5637 5621 5608 5594 5582 5568 5555 5542 5529 5515 5501 5485 5469 5454 5438 5423 5406 5391 5375 5358 5340 5321 5302 5283 5266 5249 5233 5217 5202 5188 5175 5163 5152 5143 5134 5128 5130 5133 5138
5679 5672 5663 5651 5637 5622 5607 5594 5581 5568 5554 5540 5526 5512 5498 5482 5466 5451 5435 5419 5403 5387 5370 5353 5335 5316 5297 5279 5262 5246 5231 5216 5202 5189 5176 5165 5155 5145 5136 5129 5125 5128 5136
5678 5670 5660 5647 5635 5621 5608 5595 5582 5568 5553 5539 5523 5509 5494 5479 5464 5448 5432 5416 5399 5383 5366 5349 5330 5312 5294 5277 5260 5244 5230 5216 5202 5190 5179 5168 5160 5151 5142 5133 5125 5122 5128
5674 5665 5655 5645 5632 5620 5606 5591 5579 5567 5552 5536 5521 5508 5492 5477 5461 5445 5428 5412 5396 5379 5362 5344 5327 5309 5292 5275 5259 5244 5231 5216 5204 5193 5183 5174 5166 5158 5149 5141 5133 5127 5125
5674 5667 5656 5643 5628 5613 5600 5587 5574 5561 5547 5533 5519 5505 5489 5474 5458 5441 5425 5409 5392 5375 5358 5341 5325 5308 5291 5275 5259 5245 5232 5219 5208 5197 5188 5180 5172 5164 5156 5149 5141 5135 5130
5673 5664 5651 5636 5621 5608 5596 5584 5572 5559 5546 5532 5516 5501 5486 5470 5454 5438 5422 5405 5389 5372 5356 5339 5323 5307 5291 5275 5260 5246 5235 5222 5212 5203 5194 5186 5179 5171 5164 5156 5149 5143 5138
5666 5655 5641 5630 5619 5607 5594 5582 5570 5557 5543 5528 5513 5498 5482 5467 5451 5436 5419 5403 5386 5370 5353 5337 5321 5306 5291 5276 5262 5249 5237 5227 5217 5208 5200 5192 5184 5177 5170 5163 5156 5151 5148
5657 5646 5634 5626 5616 5605 5592 5580 5568 5555 5540 5525 5511 5496 5481 5465 5449 5433 5417 5400 5384 5368 5352 5336 5320 5306 5292 5278 5264 5252 5241 5232 5223 5215 5205 5197 5189 5183 5176 5170 5164 5159 5155
5650 5640 5633 5623 5611 5600 5589 5577 5566 5552 5538 5523 5509 5495 5480 5462 5446 5430 5414 5398 5382 5367 5351 5335 5320 5306 5292 5279 5267 5258 5249 5240 5230 5218 5208 5199 5194 5190 5185 5180 5174 5168 5163
5647 5639 5630 5619 5609 5599 5588 5576 5564 5551 5536 5522 5507 5492 5475 5458 5442 5427 5411 5396 5381 5365 5350 5335 5320 5306 5294 5283 5275 5266 5255 5243 5231 5220 5211 5202 5197 5193 5190 5186 5181 5176 5169
5641 5635 5629 5620 5612 5602 5590 5577 5565 5549 5533 5520 5505 5488 5472 5455 5440 5425 5409 5394 5379 5364 5349 5334 5320 5308 5295 5286 5278 5269 5258 5244 5232 5222 5213 5207 5201 5197 5190 5188 5185 5179 5174
5634 5631 5625 5617 5610 5599 5587 5574 5560 5545 5531 5517 5502 5486 5469 5453 5437 5422 5407 5393 5378 5363 5349 5336 5322 5309 5298 5289 5280 5271 5259 5245 5234 5224 5216 5209 5203 5200 5199 5197 5191 5183 5178
5626 5623 5617 5610 5602 5592 5581 5567 5554 5540 5527 5514 5500 5484 5467 5451 5435 5420 5407 5392 5377 5364 5350 5337 5324 5310 5299 5289 5281 5274 5260 5248 5238 5228 5220 5213 5208 5207 5207 5202 5195 5190 5186
5614 5610 5605 5598 5591 5583 5571 5559 5548 5536 5526 5515 5501 5483 5466 5450 5436 5421 5406 5392 5378 5365 5351 5339 5325 5312 5299 5290 5282 5274 5263 5253 5243 5233 5224 5217 5214 5213 5210 5204 5197 5194 5192
5603 5599 5593 5587 5583 5573 5561 5552 5544 5536 5527 5512 5496 5480 5464 5449 5435 5419 5405 5391 5378 5365 5351 5338 5326 5313 5301 5291 5282 5274 5264 5255 5245 5237 5228 5221 5218 5214 5210 5206 5200 5199 5198
5592 5588 5581 5580 5574 5563 5553 5547 5542 5536 5519 5504 5491 5477 5462 5447 5433 5417 5403 5389 5376 5363 5350 5337 5324 5312 5301 5291 5281 5275 5267 5258 5247 5239 5231 5225 5221 5215 5210 5206 5205 5203 5199
5580 5577 5571 5569 5564 5554 5546 5543 5541 5526 5511 5497 5484 5470 5456 5442 5429 5414 5401 5388 5375 5363 5351 5338 5326 5313 5302 5291 5283 5274 5266 5258 5250 5241 5234 5228 5221 5215 5209 5207 5206 5202 5198
5569 5566 5560 5556 5556 5549 5541 5539 5531 5516 5503 5490 5477 5464 5450 5438 5424 5412 5399 5387 5376 5363 5352 5340 5327 5314 5302 5291 5282 5272 5265 5259 5250 5241 5233 5227 5219 5214 5210 5207 5204 5202 5201
5557 5553 5549 5548 5549 5544 5536 5530 5520 5508 5496 5484 5472 5459 5447 5435 5421 5410 5399 5388 5378 5366 5353 5342 5328 5315 5303 5294 5288 5280 5270 5261 5253 5244 5233 5226 5220 5215 5211 5208 5207 5205 5204
5545 5541 5539 5538 5539 5535 5530 5523 5512 5501 5490 5478 5466 5454 5443 5430 5418 5406 5394 5386 5376 5367 5357 5346 5331 5319 5309 5300 5292 5282 5272 5263 5255 5243 5233 5225 5220 5215 5212 5209 5208 5207 5206